Location: Caltech
(34.1382°N, 118.1253°W)
Time: 07:55:36
(UTC-07:00)

OAO 2 Rocket - Visible Passes

Search period start: 06 May 2016 00:00
Search period end: 16 May 2016 00:00
Orbit: 677 x 747 km, 35.0° (Epoch: 06 May)

Date Brightness Start Highest point End Pass type
(mag) Time Alt. Az. Time Alt. Az. Time Alt. Az.
06 May 3.2 21:27:21 10° WSW 21:32:34 77° SSE 21:34:23 41° E visible
06 May 5.7 23:12:18 10° W 23:13:23 16° W 23:13:23 16° W visible
07 May 3.4 20:29:48 10° WSW 20:34:59 61° SSE 20:40:05 10° E visible
07 May 3.5 22:14:35 10° W 22:19:18 71° WNW 22:19:18 71° WNW visible
08 May 3.3 21:16:52 10° W 21:22:09 88° N 21:25:05 26° E visible
08 May 5.1 23:01:53 10° W 23:04:03 25° W 23:04:03 25° W visible
09 May 3.4 20:19:12 10° WSW 20:24:29 81° SSE 20:29:42 10° E visible
09 May 3.3 22:04:11 10° W 22:09:26 81° N 22:09:42 77° NE visible
10 May 3.4 21:06:27 10° W 21:11:45 81° N 21:15:16 21° E visible
10 May 4.8 22:51:27 10° W 22:54:14 32° W 22:54:14 32° W visible
11 May 3.5 20:08:44 10° W 20:14:04 85° N 20:19:18 10° E visible
11 May 3.2 21:53:45 10° W 21:59:01 90° WSW 21:59:44 68° E visible
12 May 3.4 20:56:03 10° W 21:01:21 83° N 21:05:11 19° E visible
12 May 4.6 22:41:02 10° W 22:44:09 34° W 22:44:09 34° W visible
13 May 3.3 21:43:18 10° W 21:48:34 73° SSW 21:49:34 56° SE visible
14 May 3.4 20:45:37 10° W 20:50:56 86° SSW 20:55:00 17° ESE visible
14 May 4.7 22:30:43 10° W 22:33:58 30° WSW 22:33:58 30° WSW visible
15 May 3.7 21:32:54 10° W 21:38:02 52° SSW 21:39:23 41° SSE visible
